Time,TemperatureF,DewpointF,PressureIn,WindDirection,WindDirectionDegrees,WindSpeedMPH,WindSpeedGustMPH,Humidity,HourlyPrecipIn,Conditions,Clouds,dailyrainin,SoftwareType,DateUTC
2013-03-30 00:00:00,43.9,17.4,30.26,West,268,0.0,0.0,34,0.00,,---,0.00,VWS V14.01,2013-03-30 07:00:00,
2013-03-30 00:05:00,43.7,16.5,30.26,West,268,0.0,0.0,33,0.00,,---,0.00,VWS V14.01,2013-03-30 07:05:00,
2013-03-30 00:10:00,43.6,17.8,30.26,West,268,0.0,0.0,35,0.00,,---,0.00,VWS V14.01,2013-03-30 07:10:00,
2013-03-30 00:15:00,43.4,16.9,30.26,West,268,0.0,0.0,34,0.00,,---,0.00,VWS V14.01,2013-03-30 07:15:00,
2013-03-30 00:20:00,43.2,16.1,30.26,West,268,0.0,0.0,33,0.00,,---,0.00,VWS V14.01,2013-03-30 07:20:00,
2013-03-30 00:25:00,43.1,15.3,30.27,West,268,0.0,0.0,32,0.00,,---,0.00,VWS V14.01,2013-03-30 07:25:00,
2013-03-30 00:30:00,43.0,13.7,30.27,West,268,0.0,0.0,30,0.00,,---,0.00,VWS V14.01,2013-03-30 07:30:00,
2013-03-30 00:35:00,42.9,12.9,30.27,West,268,0.0,0.0,29,0.00,,---,0.00,VWS V14.01,2013-03-30 07:35:00,
2013-03-30 00:40:00,42.7,13.4,30.27,West,268,0.0,0.0,30,0.00,,---,0.00,VWS V14.01,2013-03-30 07:40:00,
2013-03-30 00:45:00,42.5,13.3,30.27,West,268,0.0,0.0,30,0.00,,---,0.00,VWS V14.01,2013-03-30 07:45:00,
2013-03-30 00:50:00,42.4,12.4,30.27,West,268,0.0,0.0,29,0.00,,---,0.00,VWS V14.01,2013-03-30 07:50:00,
2013-03-30 00:55:00,42.4,10.0,30.27,West,268,0.0,0.0,26,0.00,,---,0.00,VWS V14.01,2013-03-30 07:55:00,
2013-03-30 01:00:00,42.3,8.1,30.27,West,268,0.0,0.0,24,0.00,,---,0.00,VWS V14.01,2013-03-30 08:00:00,
2013-03-30 01:05:00,42.2,8.0,30.27,West,268,0.0,0.0,24,0.00,,---,0.00,VWS V14.01,2013-03-30 08:05:00,
2013-03-30 01:10:00,42.0,8.7,30.27,West,268,0.0,0.0,25,0.00,,---,0.00,VWS V14.01,2013-03-30 08:10:00,
2013-03-30 01:15:00,41.8,9.4,30.27,West,268,0.0,0.0,26,0.00,,---,0.00,VWS V14.01,2013-03-30 08:15:00,
2013-03-30 01:20:00,41.6,9.3,30.27,West,268,0.0,0.0,26,0.00,,---,0.00,VWS V14.01,2013-03-30 08:20:00,
2013-03-30 01:25:00,41.5,10.0,30.27,West,268,0.0,0.0,27,0.00,,---,0.00,VWS V14.01,2013-03-30 08:25:00,
2013-03-30 01:30:00,41.2,9.8,30.27,West,268,0.0,0.0,27,0.00,,---,0.00,VWS V14.01,2013-03-30 08:30:00,
2013-03-30 01:35:00,41.1,8.8,30.27,West,268,0.0,0.0,26,0.00,,---,0.00,VWS V14.01,2013-03-30 08:35:00,
2013-03-30 01:40:00,41.1,7.1,30.27,West,268,0.0,0.0,24,0.00,,---,0.00,VWS V14.01,2013-03-30 08:40:00,
2013-03-30 01:45:00,41.0,4.1,30.27,West,268,0.0,0.0,21,0.00,,---,0.00,VWS V14.01,2013-03-30 08:45:00,
2013-03-30 01:50:00,41.0,6.1,30.27,West,268,0.0,0.0,23,0.00,,---,0.00,VWS V14.01,2013-03-30 08:50:00,
2013-03-30 01:55:00,40.8,4.9,30.27,West,268,0.0,0.0,22,0.00,,---,0.00,VWS V14.01,2013-03-30 08:55:00,
2013-03-30 02:00:00,40.7,4.8,30.27,West,268,0.0,0.0,22,0.00,,---,0.00,VWS V14.01,2013-03-30 09:00:00,
2013-03-30 02:05:00,40.5,3.7,30.27,West,268,0.0,0.0,21,0.00,,---,0.00,VWS V14.01,2013-03-30 09:05:00,
2013-03-30 02:10:00,40.4,3.6,30.27,West,268,0.0,0.0,21,0.00,,---,0.00,VWS V14.01,2013-03-30 09:10:00,
2013-03-30 02:15:00,40.3,3.5,30.27,West,268,0.0,0.0,21,0.00,,---,0.00,VWS V14.01,2013-03-30 09:15:00,
2013-03-30 02:20:00,40.1,3.3,30.27,West,268,0.0,0.0,21,0.00,,---,0.00,VWS V14.01,2013-03-30 09:20:00,
2013-03-30 02:25:00,40.0,3.2,30.27,West,268,0.0,0.0,21,0.00,,---,0.00,VWS V14.01,2013-03-30 09:25:00,
2013-03-30 02:30:00,39.8,3.1,30.27,West,268,0.0,0.0,21,0.00,,---,0.00,VWS V14.01,2013-03-30 09:30:00,
2013-03-30 02:34:00,39.7,4.0,30.27,West,268,0.0,0.0,22,0.00,,---,0.00,VWS V14.01,2013-03-30 09:34:00,
2013-03-30 02:39:00,39.5,3.8,30.28,West,268,0.0,0.0,22,0.00,,---,0.00,VWS V14.01,2013-03-30 09:39:00,
2013-03-30 02:44:00,39.3,3.7,30.27,West,268,0.0,0.0,22,0.00,,---,0.00,VWS V14.01,2013-03-30 09:44:00,
2013-03-30 02:49:00,39.2,3.6,30.28,West,268,0.0,0.0,22,0.00,,---,0.00,VWS V14.01,2013-03-30 09:49:00,
2013-03-30 02:54:00,39.1,2.5,30.28,West,268,0.0,0.0,21,0.00,,---,0.00,VWS V14.01,2013-03-30 09:54:00,
2013-03-30 02:59:00,39.0,2.4,30.28,West,268,0.0,0.0,21,0.00,,---,0.00,VWS V14.01,2013-03-30 09:59:00,
2013-03-30 03:04:00,38.9,1.3,30.27,West,268,0.0,0.0,20,0.00,,---,0.00,VWS V14.01,2013-03-30 10:04:00,
2013-03-30 03:09:00,38.8,1.2,30.27,West,268,0.0,0.0,20,0.00,,---,0.00,VWS V14.01,2013-03-30 10:09:00,
2013-03-30 03:14:00,38.8,0.1,30.27,West,268,0.0,0.0,19,0.00,,---,0.00,VWS V14.01,2013-03-30 10:14:00,
2013-03-30 03:19:00,38.7,-1.1,30.28,West,268,0.0,0.0,18,0.00,,---,0.00,VWS V14.01,2013-03-30 10:19:00,
2013-03-30 03:24:00,38.6,-1.2,30.28,West,268,0.0,0.0,18,0.00,,---,0.00,VWS V14.01,2013-03-30 10:24:00,
2013-03-30 03:29:00,38.5,-0.2,30.28,West,268,0.0,0.0,19,0.00,,---,0.00,VWS V14.01,2013-03-30 10:29:00,
2013-03-30 03:34:00,38.4,-0.2,30.28,West,268,0.0,0.0,19,0.00,,---,0.00,VWS V14.01,2013-03-30 10:34:00,
2013-03-30 03:39:00,38.2,-0.4,30.28,West,268,0.0,0.0,19,0.00,,---,0.00,VWS V14.01,2013-03-30 10:39:00,
2013-03-30 03:44:00,38.3,-2.7,30.28,West,268,0.0,0.0,17,0.00,,---,0.00,VWS V14.01,2013-03-30 10:44:00,
2013-03-30 03:49:00,38.2,-2.8,30.28,West,268,0.0,0.0,17,0.00,,---,0.00,VWS V14.01,2013-03-30 10:49:00,
2013-03-30 03:54:00,38.1,-2.8,30.27,West,268,0.0,0.0,17,0.00,,---,0.00,VWS V14.01,2013-03-30 10:54:00,
2013-03-30 03:59:00,37.9,-1.8,30.27,West,268,0.0,0.0,18,0.00,,---,0.00,VWS V14.01,2013-03-30 10:59:00,
2013-03-30 04:04:00,37.7,-0.8,30.27,West,268,0.0,0.0,19,0.00,,---,0.00,VWS V14.01,2013-03-30 11:04:00,
2013-03-30 04:09:00,37.5,-1.0,30.27,West,268,0.0,0.0,19,0.00,,---,0.00,VWS V14.01,2013-03-30 11:09:00,
2013-03-30 04:14:00,37.4,-1.1,30.27,West,268,0.0,0.0,19,0.00,,---,0.00,VWS V14.01,2013-03-30 11:14:00,
2013-03-30 04:19:00,37.3,-1.2,30.27,West,268,0.0,0.0,19,0.00,,---,0.00,VWS V14.01,2013-03-30 11:19:00,
2013-03-30 04:24:00,37.3,-2.3,30.27,West,268,0.0,0.0,18,0.00,,---,0.00,VWS V14.01,2013-03-30 11:24:00,
2013-03-30 04:29:00,37.3,-2.3,30.27,West,268,0.0,0.0,18,0.00,,---,0.00,VWS V14.01,2013-03-30 11:29:00,
2013-03-30 04:34:00,37.1,-2.5,30.27,West,268,0.0,0.0,18,0.00,,---,0.00,VWS V14.01,2013-03-30 11:34:00,
2013-03-30 04:39:00,37.0,-2.5,30.27,West,268,0.0,0.0,18,0.00,,---,0.00,VWS V14.01,2013-03-30 11:39:00,
2013-03-30 04:44:00,36.9,-2.6,30.27,West,268,0.0,0.0,18,0.00,,---,0.00,VWS V14.01,2013-03-30 11:44:00,
2013-03-30 04:49:00,36.8,-2.7,30.27,West,268,0.0,0.0,18,0.00,,---,0.00,VWS V14.01,2013-03-30 11:49:00,
2013-03-30 04:54:00,36.8,-2.7,30.27,West,268,0.0,0.0,18,0.00,,---,0.00,VWS V14.01,2013-03-30 11:54:00,
2013-03-30 04:59:00,36.6,-2.9,30.27,West,268,0.0,0.0,18,0.00,,---,0.00,VWS V14.01,2013-03-30 11:59:00,
2013-03-30 05:04:00,36.4,-3.0,30.27,West,268,0.0,0.0,18,0.00,,---,0.00,VWS V14.01,2013-03-30 12:04:00,
2013-03-30 05:09:00,36.3,-2.0,30.27,West,268,0.0,0.0,19,0.00,,---,0.00,VWS V14.01,2013-03-30 12:09:00,
2013-03-30 05:14:00,36.2,-3.2,30.27,West,268,0.0,0.0,18,0.00,,---,0.00,VWS V14.01,2013-03-30 12:14:00,
2013-03-30 05:19:00,36.1,-3.3,30.27,West,268,0.0,0.0,18,0.00,,---,0.00,VWS V14.01,2013-03-30 12:19:00,
2013-03-30 05:24:00,36.0,-3.4,30.27,West,268,0.0,0.0,18,0.00,,---,0.00,VWS V14.01,2013-03-30 12:24:00,
2013-03-30 05:29:00,35.9,-3.5,30.27,West,268,0.0,0.0,18,0.00,,---,0.00,VWS V14.01,2013-03-30 12:29:00,
2013-03-30 05:34:00,35.8,-3.5,30.27,West,268,0.0,0.0,18,0.00,,---,0.00,VWS V14.01,2013-03-30 12:34:00,
2013-03-30 05:39:00,35.7,-3.6,30.27,West,268,0.0,0.0,18,0.00,,---,0.00,VWS V14.01,2013-03-30 12:39:00,
2013-03-30 05:44:00,35.6,-3.7,30.27,West,268,0.0,0.0,18,0.00,,---,0.00,VWS V14.01,2013-03-30 12:44:00,
2013-03-30 05:49:00,35.5,-3.8,30.27,West,268,0.0,0.0,18,0.00,,---,0.00,VWS V14.01,2013-03-30 12:49:00,
2013-03-30 05:54:00,35.4,-3.9,30.27,West,268,0.0,0.0,18,0.00,,---,0.00,VWS V14.01,2013-03-30 12:54:00,
2013-03-30 05:59:00,35.3,-4.0,30.27,West,268,0.0,0.0,18,0.00,,---,0.00,VWS V14.01,2013-03-30 12:59:00,
2013-03-30 06:04:00,35.2,-4.0,30.27,West,268,0.0,0.0,18,0.00,,---,0.00,VWS V14.01,2013-03-30 13:04:00,
2013-03-30 06:09:00,35.1,-4.1,30.27,West,268,0.0,0.0,18,0.00,,---,0.00,VWS V14.01,2013-03-30 13:09:00,
2013-03-30 06:14:00,35.1,-4.1,30.27,West,268,0.0,0.0,18,0.00,,---,0.00,VWS V14.01,2013-03-30 13:14:00,
2013-03-30 06:19:00,35.1,-5.3,30.27,West,268,0.0,0.0,17,0.00,,---,0.00,VWS V14.01,2013-03-30 13:19:00,
2013-03-30 06:24:00,34.9,-5.5,30.27,West,268,0.0,0.0,17,0.00,,---,0.00,VWS V14.01,2013-03-30 13:24:00,
2013-03-30 06:29:00,34.8,-4.4,30.27,West,268,0.0,0.0,18,0.00,,---,0.00,VWS V14.01,2013-03-30 13:29:00,
2013-03-30 06:34:00,34.7,-4.5,30.27,West,268,0.0,0.0,18,0.00,,---,0.00,VWS V14.01,2013-03-30 13:34:00,
2013-03-30 06:39:00,34.8,-5.6,30.27,West,268,0.0,0.0,17,0.00,,---,0.00,VWS V14.01,2013-03-30 13:39:00,
2013-03-30 06:44:00,34.9,-5.5,30.27,West,268,0.0,0.0,17,0.00,,---,0.00,VWS V14.01,2013-03-30 13:44:00,
2013-03-30 06:49:00,34.9,-6.7,30.27,West,268,0.0,0.0,16,0.00,,---,0.00,VWS V14.01,2013-03-30 13:49:00,
2013-03-30 06:54:00,34.9,-6.7,30.27,West,268,0.0,0.0,16,0.00,,---,0.00,VWS V14.01,2013-03-30 13:54:00,
2013-03-30 06:59:00,35.0,-6.7,30.27,West,268,0.0,0.0,16,0.00,,---,0.00,VWS V14.01,2013-03-30 13:59:00,
2013-03-30 07:04:00,35.0,-6.7,30.27,West,268,0.0,0.0,16,0.00,,---,0.00,VWS V14.01,2013-03-30 14:04:00,
2013-03-30 07:09:00,35.1,-7.9,30.27,West,268,0.0,0.0,15,0.00,,---,0.00,VWS V14.01,2013-03-30 14:09:00,
2013-03-30 07:14:00,35.1,-7.9,30.27,West,268,0.0,0.0,15,0.00,,---,0.00,VWS V14.01,2013-03-30 14:14:00,
2013-03-30 07:19:00,35.2,-7.8,30.27,West,268,0.0,0.0,15,0.00,,---,0.00,VWS V14.01,2013-03-30 14:19:00,
2013-03-30 07:24:00,35.2,-7.8,30.28,West,268,0.0,0.0,15,0.00,,---,0.00,VWS V14.01,2013-03-30 14:24:00,
2013-03-30 07:29:00,35.4,-9.1,30.28,West,268,0.0,0.0,14,0.00,,---,0.00,VWS V14.01,2013-03-30 14:29:00,
2013-03-30 07:34:00,35.5,-9.0,30.28,West,268,0.0,0.0,14,0.00,,---,0.00,VWS V14.01,2013-03-30 14:34:00,
2013-03-30 07:39:00,35.6,-8.9,30.27,West,268,0.0,0.0,14,0.00,,---,0.00,VWS V14.01,2013-03-30 14:39:00,
2013-03-30 07:44:00,35.8,-10.2,30.27,West,268,0.0,0.0,13,0.00,,---,0.00,VWS V14.01,2013-03-30 14:44:00,
2013-03-30 07:49:00,36.1,-10.0,30.27,West,268,0.0,0.0,13,0.00,,---,0.00,VWS V14.01,2013-03-30 14:49:00,
2013-03-30 07:54:00,36.3,-9.8,30.27,West,268,0.0,0.0,13,0.00,,---,0.00,VWS V14.01,2013-03-30 14:54:00,
2013-03-30 07:59:00,36.6,-11.2,30.27,West,268,0.0,0.0,12,0.00,,---,0.00,VWS V14.01,2013-03-30 14:59:00,
2013-03-30 08:04:00,36.8,-11.0,30.27,West,268,0.0,0.0,12,0.00,,---,0.00,VWS V14.01,2013-03-30 15:04:00,
2013-03-30 08:09:00,36.9,-11.0,30.27,West,268,0.0,0.0,12,0.00,,---,0.00,VWS V14.01,2013-03-30 15:09:00,
2013-03-30 08:14:00,37.3,-10.6,30.27,West,268,0.0,0.0,12,0.00,,---,0.00,VWS V14.01,2013-03-30 15:14:00,
2013-03-30 08:19:00,37.7,-12.1,30.27,West,268,0.0,0.0,11,0.00,,---,0.00,VWS V14.01,2013-03-30 15:19:00,
2013-03-30 08:24:00,38.0,-11.8,30.27,West,268,0.0,0.0,11,0.00,,---,0.00,VWS V14.01,2013-03-30 15:24:00,
2013-03-30 08:29:00,38.3,-13.5,30.27,West,268,0.0,0.0,10,0.00,,---,0.00,VWS V14.01,2013-03-30 15:29:00,
2013-03-30 08:34:00,38.9,-15.1,30.27,West,268,0.0,0.0,9,0.00,,---,0.00,VWS V14.01,2013-03-30 15:34:00,
2013-03-30 08:39:00,39.4,-14.7,30.27,West,268,0.0,0.0,9,0.00,,---,0.00,VWS V14.01,2013-03-30 15:39:00,
2013-03-30 08:44:00,40.1,-16.5,30.27,West,268,0.0,0.0,8,0.00,,---,0.00,VWS V14.01,2013-03-30 15:44:00,
2013-03-30 08:49:00,41.0,-18.4,30.27,West,268,0.0,0.0,7,0.00,,---,0.00,VWS V14.01,2013-03-30 15:49:00,
2013-03-30 08:54:00,41.5,-18.1,30.27,West,268,0.0,0.0,7,0.00,,---,0.00,VWS V14.01,2013-03-30 15:54:00,
2013-03-30 08:59:00,42.0,-17.7,30.27,West,268,0.0,1.0,7,0.00,,---,0.00,VWS V14.01,2013-03-30 15:59:00,
2013-03-30 09:04:00,42.7,-10.1,30.26,West,268,0.0,0.0,10,0.00,,---,0.00,VWS V14.01,2013-03-30 16:04:00,
2013-03-30 09:09:00,43.6,1.7,30.26,West,268,1.0,2.0,17,0.00,,---,0.00,VWS V14.01,2013-03-30 16:09:00,
2013-03-30 09:14:00,44.5,12.6,30.26,West,268,1.0,2.0,27,0.00,,---,0.00,VWS V14.01,2013-03-30 16:14:00,
2013-03-30 09:19:00,45.2,21.1,30.26,SSW,208,1.0,2.0,38,0.00,,---,0.00,VWS V14.01,2013-03-30 16:19:00,
2013-03-30 09:24:00,45.8,29.2,30.26,SSW,208,0.0,1.0,52,0.00,,---,0.00,VWS V14.01,2013-03-30 16:24:00,
2013-03-30 09:29:00,46.4,33.7,30.26,South,188,0.0,2.0,61,0.00,,---,0.00,VWS V14.01,2013-03-30 16:29:00,
2013-03-30 09:34:00,47.0,35.9,30.26,SSE,166,0.0,2.0,65,0.00,,---,0.00,VWS V14.01,2013-03-30 16:34:00,
2013-03-30 09:39:00,47.8,37.8,30.26,SSE,166,0.0,2.0,68,0.00,,---,0.00,VWS V14.01,2013-03-30 16:39:00,
2013-03-30 09:44:00,48.5,40.2,30.26,SSE,166,1.0,2.0,73,0.00,,---,0.00,VWS V14.01,2013-03-30 16:44:00,
2013-03-30 09:49:00,49.2,40.6,30.26,SSE,166,0.0,2.0,72,0.00,,---,0.00,VWS V14.01,2013-03-30 16:49:00,
2013-03-30 09:55:00,49.6,42.0,30.26,SSE,156,1.0,1.0,75,0.00,,---,0.00,VWS V14.01,2013-03-30 16:55:00,
2013-03-30 10:00:00,50.2,42.9,30.25,NE,37,1.0,3.0,76,0.00,,---,0.00,VWS V14.01,2013-03-30 17:00:00,
2013-03-30 10:05:00,50.7,43.1,30.25,ESE,114,0.0,3.0,75,0.00,,---,0.00,VWS V14.01,2013-03-30 17:05:00,
2013-03-30 10:10:00,51.5,44.2,30.25,ESE,114,0.0,1.0,76,0.00,,---,0.00,VWS V14.01,2013-03-30 17:10:00,
2013-03-30 10:15:00,51.7,44.4,30.25,NE,38,2.0,2.0,76,0.00,,---,0.00,VWS V14.01,2013-03-30 17:15:00,
2013-03-30 10:20:00,51.9,44.6,30.25,NW,325,0.0,2.0,76,0.00,,---,0.00,VWS V14.01,2013-03-30 17:20:00,
2013-03-30 10:25:00,51.3,43.7,30.25,WSW,244,1.0,4.0,75,0.00,,---,0.00,VWS V14.01,2013-03-30 17:25:00,
2013-03-30 10:30:00,51.0,43.7,30.25,NW,324,0.0,3.0,76,0.00,,---,0.00,VWS V14.01,2013-03-30 17:30:00,
2013-03-30 10:35:00,50.8,43.5,30.25,WNW,292,0.0,3.0,76,0.00,,---,0.00,VWS V14.01,2013-03-30 17:35:00,
2013-03-30 10:40:00,51.2,43.6,30.25,West,268,1.0,1.0,75,0.00,,---,0.00,VWS V14.01,2013-03-30 17:40:00,
2013-03-30 10:45:00,51.8,44.1,30.25,ENE,57,1.0,4.0,75,0.00,,---,0.00,VWS V14.01,2013-03-30 17:45:00,
2013-03-30 10:50:00,52.3,44.3,30.25,NE,43,0.0,3.0,74,0.00,,---,0.00,VWS V14.01,2013-03-30 17:50:00,
2013-03-30 10:55:00,53.1,45.4,30.25,NE,43,0.0,0.0,75,0.00,,---,0.00,VWS V14.01,2013-03-30 17:55:00,
2013-03-30 11:00:00,53.6,45.5,30.25,SSE,163,0.0,1.0,74,0.00,,---,0.00,VWS V14.01,2013-03-30 18:00:00,
2013-03-30 11:05:00,54.0,45.5,30.24,SSE,163,0.0,1.0,73,0.00,,---,0.00,VWS V14.01,2013-03-30 18:05:00,
2013-03-30 11:10:00,54.4,45.2,30.24,West,275,2.0,3.0,71,0.00,,---,0.00,VWS V14.01,2013-03-30 18:10:00,
2013-03-30 11:15:00,54.7,45.9,30.24,North,11,1.0,2.0,72,0.00,,---,0.00,VWS V14.01,2013-03-30 18:15:00,
2013-03-30 11:20:00,55.4,46.2,30.24,NW,314,2.0,3.0,71,0.00,,---,0.00,VWS V14.01,2013-03-30 18:20:00,
2013-03-30 11:25:00,55.8,45.4,30.24,NE,35,1.0,3.0,68,0.00,,---,0.00,VWS V14.01,2013-03-30 18:25:00,
2013-03-30 11:30:00,56.6,45.4,30.24,East,85,2.0,3.0,66,0.00,,---,0.00,VWS V14.01,2013-03-30 18:30:00,
2013-03-30 11:35:00,57.3,46.0,30.24,North,9,1.0,3.0,66,0.00,,---,0.00,VWS V14.01,2013-03-30 18:35:00,
2013-03-30 11:40:00,57.8,46.5,30.23,SE,141,0.0,6.0,66,0.00,,---,0.00,VWS V14.01,2013-03-30 18:40:00,
2013-03-30 11:45:00,58.4,47.1,30.23,SW,231,0.0,2.0,66,0.00,,---,0.00,VWS V14.01,2013-03-30 18:45:00,
2013-03-30 11:50:00,58.7,46.6,30.23,SSE,157,2.0,3.0,64,0.00,,---,0.00,VWS V14.01,2013-03-30 18:50:00,
2013-03-30 11:55:00,59.3,48.0,30.23,NE,53,1.0,4.0,66,0.00,,---,0.00,VWS V14.01,2013-03-30 18:55:00,
2013-03-30 12:00:00,59.5,46.9,30.23,East,100,2.0,5.0,63,0.00,,---,0.00,VWS V14.01,2013-03-30 19:00:00,
2013-03-30 12:05:00,59.6,46.6,30.23,ESE,122,5.0,6.0,62,0.00,,---,0.00,VWS V14.01,2013-03-30 19:05:00,
2013-03-30 12:10:00,59.6,46.2,30.23,SE,129,1.0,6.0,61,0.00,,---,0.00,VWS V14.01,2013-03-30 19:10:00,
2013-03-30 12:15:00,59.9,46.9,30.23,SE,131,1.0,6.0,62,0.00,,---,0.00,VWS V14.01,2013-03-30 19:15:00,
2013-03-30 12:20:00,60.4,46.9,30.22,WSW,238,0.0,5.0,61,0.00,,---,0.00,VWS V14.01,2013-03-30 19:20:00,
2013-03-30 12:25:00,60.4,46.5,30.22,WSW,254,1.0,7.0,60,0.00,,---,0.00,VWS V14.01,2013-03-30 19:25:00,
2013-03-30 12:30:00,61.1,48.8,30.22,ENE,71,0.0,8.0,64,0.00,,---,0.00,VWS V14.01,2013-03-30 19:30:00,
2013-03-30 12:35:00,61.9,48.3,30.22,SE,131,0.0,5.0,61,0.00,,---,0.00,VWS V14.01,2013-03-30 19:35:00,
2013-03-30 12:40:00,62.2,46.8,30.22,SE,143,0.0,6.0,57,0.00,,---,0.00,VWS V14.01,2013-03-30 19:40:00,
2013-03-30 12:45:00,62.4,46.5,30.21,SSE,148,1.0,4.0,56,0.00,,---,0.00,VWS V14.01,2013-03-30 19:45:00,
2013-03-30 12:50:00,62.6,47.2,30.21,ESE,116,1.0,1.0,57,0.00,,---,0.00,VWS V14.01,2013-03-30 19:50:00,
2013-03-30 12:55:00,63.0,49.8,30.21,East,92,0.0,0.0,62,0.00,,---,0.00,VWS V14.01,2013-03-30 19:55:00,
2013-03-30 13:00:00,63.0,45.6,30.21,East,97,9.0,11.0,53,0.00,,---,0.00,VWS V14.01,2013-03-30 20:00:00,
2013-03-30 13:05:00,63.2,46.3,30.20,NW,314,3.0,3.0,54,0.00,,---,0.00,VWS V14.01,2013-03-30 20:05:00,
2013-03-30 13:10:00,63.3,45.9,30.20,SE,128,4.0,4.0,53,0.00,,---,0.00,VWS V14.01,2013-03-30 20:10:00,
2013-03-30 13:15:00,63.5,46.6,30.20,SE,133,4.0,4.0,54,0.00,,---,0.00,VWS V14.01,2013-03-30 20:15:00,
2013-03-30 13:20:00,63.8,46.8,30.20,SE,138,0.0,1.0,54,0.00,,---,0.00,VWS V14.01,2013-03-30 20:20:00,
2013-03-30 13:25:00,64.1,46.6,30.20,South,184,2.0,4.0,53,0.00,,---,0.00,VWS V14.01,2013-03-30 20:25:00,
2013-03-30 13:30:00,63.9,46.5,30.20,SE,138,4.0,4.0,53,0.00,,---,0.00,VWS V14.01,2013-03-30 20:30:00,
2013-03-30 13:35:00,63.9,46.5,30.20,NE,40,3.0,4.0,53,0.00,,---,0.00,VWS V14.01,2013-03-30 20:35:00,
2013-03-30 13:40:00,64.4,47.9,30.19,SE,138,1.0,1.0,55,0.00,,---,0.00,VWS V14.01,2013-03-30 20:40:00,
2013-03-30 13:45:00,64.9,46.9,30.19,SE,125,6.0,6.0,52,0.00,,---,0.00,VWS V14.01,2013-03-30 20:45:00,
2013-03-30 13:50:00,64.7,46.7,30.19,ESE,121,5.0,5.0,52,0.00,,---,0.00,VWS V14.01,2013-03-30 20:50:00,
2013-03-30 13:55:00,64.9,47.4,30.19,SSE,167,5.0,5.0,53,0.00,,---,0.00,VWS V14.01,2013-03-30 20:55:00,
2013-03-30 14:00:00,65.0,47.0,30.18,SSW,201,0.0,2.0,52,0.00,,---,0.00,VWS V14.01,2013-03-30 21:00:00,
2013-03-30 14:05:00,65.2,47.2,30.18,NNW,332,0.0,0.0,52,0.00,,---,0.00,VWS V14.01,2013-03-30 21:05:00,
2013-03-30 14:10:00,65.7,46.6,30.18,ENE,64,0.0,1.0,50,0.00,,---,0.00,VWS V14.01,2013-03-30 21:10:00,
2013-03-30 14:15:00,65.9,47.8,30.18,ESE,116,0.0,1.0,52,0.00,,---,0.00,VWS V14.01,2013-03-30 21:15:00,
2013-03-30 14:20:00,66.3,47.1,30.18,ESE,115,1.0,2.0,50,0.00,,---,0.00,VWS V14.01,2013-03-30 21:20:00,
2013-03-30 14:25:00,66.3,47.1,30.17,ESE,108,6.0,6.0,50,0.00,,---,0.00,VWS V14.01,2013-03-30 21:25:00,
2013-03-30 14:30:00,66.2,47.6,30.17,ENE,63,5.0,5.0,51,0.00,,---,0.00,VWS V14.01,2013-03-30 21:30:00,
2013-03-30 14:35:00,66.3,46.6,30.17,ENE,74,0.0,2.0,49,0.00,,---,0.00,VWS V14.01,2013-03-30 21:35:00,
2013-03-30 14:40:00,66.5,46.8,30.17,ESE,114,1.0,1.0,49,0.00,,---,0.00,VWS V14.01,2013-03-30 21:40:00,
2013-03-30 14:45:00,66.8,47.6,30.17,East,81,0.0,0.0,50,0.00,,---,0.00,VWS V14.01,2013-03-30 21:45:00,
2013-03-30 14:50:00,66.7,46.4,30.16,SSE,165,0.0,1.0,48,0.00,,---,0.00,VWS V14.01,2013-03-30 21:50:00,
2013-03-30 14:55:00,66.8,47.0,30.16,NNW,329,1.0,4.0,49,0.00,,---,0.00,VWS V14.01,2013-03-30 21:55:00,
2013-03-30 15:00:00,67.2,46.9,30.16,SSE,161,1.0,1.0,48,0.00,,---,0.00,VWS V14.01,2013-03-30 22:00:00,
2013-03-30 15:05:00,67.3,46.4,30.16,NE,44,0.0,0.0,47,0.00,,---,0.00,VWS V14.01,2013-03-30 22:05:00,
2013-03-30 15:10:00,67.4,46.5,30.15,North,360,0.0,1.0,47,0.00,,---,0.00,VWS V14.01,2013-03-30 22:10:00,
2013-03-30 15:15:00,67.6,46.1,30.15,WSW,248,0.0,0.0,46,0.00,,---,0.00,VWS V14.01,2013-03-30 22:15:00,
2013-03-30 15:20:00,67.8,45.7,30.15,SSE,153,2.0,5.0,45,0.00,,---,0.00,VWS V14.01,2013-03-30 22:20:00,
2013-03-30 15:25:00,68.0,45.3,30.15,SE,144,1.0,4.0,44,0.00,,---,0.00,VWS V14.01,2013-03-30 22:25:00,
2013-03-30 15:30:00,67.7,45.0,30.15,ESE,103,0.0,2.0,44,0.00,,---,0.00,VWS V14.01,2013-03-30 22:30:00,
2013-03-30 15:35:00,67.5,44.8,30.14,ESE,110,0.0,0.0,44,0.00,,---,0.00,VWS V14.01,2013-03-30 22:35:00,
2013-03-30 15:40:00,68.0,45.3,30.14,NNE,19,0.0,0.0,44,0.00,,---,0.00,VWS V14.01,2013-03-30 22:40:00,
2013-03-30 15:45:00,68.1,43.5,30.14,SW,234,0.0,2.0,41,0.00,,---,0.00,VWS V14.01,2013-03-30 22:45:00,
2013-03-30 15:50:00,68.0,44.1,30.14,SW,225,0.0,0.0,42,0.00,,---,0.00,VWS V14.01,2013-03-30 22:50:00,
2013-03-30 15:55:00,68.0,44.7,30.13,SSW,211,0.0,1.0,43,0.00,,---,0.00,VWS V14.01,2013-03-30 22:55:00,
2013-03-30 16:00:00,68.4,46.2,30.13,East,92,2.0,2.0,45,0.00,,---,0.00,VWS V14.01,2013-03-30 23:00:00,
2013-03-30 16:05:00,68.4,45.7,30.13,ESE,121,0.0,0.0,44,0.00,,---,0.00,VWS V14.01,2013-03-30 23:05:00,
2013-03-30 16:10:00,68.1,45.4,30.13,SE,128,1.0,2.0,44,0.00,,---,0.00,VWS V14.01,2013-03-30 23:10:00,
2013-03-30 16:15:00,67.5,45.4,30.13,West,260,0.0,0.0,45,0.00,,---,0.00,VWS V14.01,2013-03-30 23:15:00,
2013-03-30 16:20:00,67.4,44.2,30.13,WSW,258,0.0,2.0,43,0.00,,---,0.00,VWS V14.01,2013-03-30 23:20:00,
2013-03-30 16:25:00,67.4,44.8,30.12,SE,144,1.0,1.0,44,0.00,,---,0.00,VWS V14.01,2013-03-30 23:25:00,
2013-03-30 16:30:00,67.2,45.2,30.12,SW,215,0.0,0.0,45,0.00,,---,0.00,VWS V14.01,2013-03-30 23:30:00,
2013-03-30 16:35:00,67.2,46.3,30.12,SW,214,0.0,0.0,47,0.00,,---,0.00,VWS V14.01,2013-03-30 23:35:00,
2013-03-30 16:40:00,67.2,46.3,30.12,SW,227,2.0,2.0,47,0.00,,---,0.00,VWS V14.01,2013-03-30 23:40:00,
2013-03-30 16:45:00,67.4,46.5,30.12,SW,233,0.0,1.0,47,0.00,,---,0.00,VWS V14.01,2013-03-30 23:45:00,
2013-03-30 16:50:00,67.6,46.7,30.12,SSW,207,0.0,0.0,47,0.00,,---,0.00,VWS V14.01,2013-03-30 23:50:00,
2013-03-30 16:55:00,67.7,45.6,30.12,ENE,58,0.0,2.0,45,0.00,,---,0.00,VWS V14.01,2013-03-30 23:55:00,
2013-03-30 17:00:00,67.2,46.9,30.11,ENE,78,0.0,0.0,48,0.00,,---,0.00,VWS V14.01,2013-03-31 00:00:00,
2013-03-30 17:05:00,66.7,45.8,30.11,ENE,69,0.0,0.0,47,0.00,,---,0.00,VWS V14.01,2013-03-31 00:05:00,
2013-03-30 17:10:00,66.2,45.4,30.11,ENE,69,0.0,1.0,47,0.00,,---,0.00,VWS V14.01,2013-03-31 00:10:00,
2013-03-30 17:15:00,65.8,45.0,30.11,South,172,0.0,1.0,47,0.00,,---,0.00,VWS V14.01,2013-03-31 00:15:00,
2013-03-30 17:20:00,65.6,46.0,30.11,SW,217,0.0,0.0,49,0.00,,---,0.00,VWS V14.01,2013-03-31 00:20:00,
2013-03-30 17:25:00,65.1,44.4,30.11,SW,217,0.0,0.0,47,0.00,,---,0.00,VWS V14.01,2013-03-31 00:25:00,
2013-03-30 17:30:00,64.8,45.7,30.11,SW,219,0.0,0.0,50,0.00,,---,0.00,VWS V14.01,2013-03-31 00:30:00,
2013-03-30 17:35:00,64.6,46.1,30.11,NNW,338,0.0,1.0,51,0.00,,---,0.00,VWS V14.01,2013-03-31 00:35:00,
2013-03-30 17:40:00,64.5,45.5,30.11,NE,34,0.0,0.0,50,0.00,,---,0.00,VWS V14.01,2013-03-31 00:40:00,
2013-03-30 17:45:00,64.1,46.1,30.11,NE,34,0.0,0.0,52,0.00,,---,0.00,VWS V14.01,2013-03-31 00:45:00,
2013-03-30 17:50:00,64.0,45.0,30.10,West,269,0.0,0.0,50,0.00,,---,0.00,VWS V14.01,2013-03-31 00:50:00,
2013-03-30 17:55:00,63.7,45.8,30.10,West,269,1.0,1.0,52,0.00,,---,0.00,VWS V14.01,2013-03-31 00:55:00,
2013-03-30 18:00:00,63.3,44.4,30.10,West,269,2.0,2.0,50,0.00,,---,0.00,VWS V14.01,2013-03-31 01:00:00,
2013-03-30 18:05:00,63.1,44.7,30.10,SSW,207,0.0,0.0,51,0.00,,---,0.00,VWS V14.01,2013-03-31 01:05:00,
2013-03-30 18:10:00,62.8,45.9,30.10,SW,215,0.0,0.0,54,0.00,,---,0.00,VWS V14.01,2013-03-31 01:10:00,
2013-03-30 18:15:00,62.4,46.0,30.10,SW,220,1.0,2.0,55,0.00,,---,0.00,VWS V14.01,2013-03-31 01:15:00,
2013-03-30 18:20:00,62.0,45.7,30.10,SW,220,0.0,1.0,55,0.00,,---,0.00,VWS V14.01,2013-03-31 01:20:00,
2013-03-30 18:25:00,61.8,46.4,30.10,SW,220,0.0,0.0,57,0.00,,---,0.00,VWS V14.01,2013-03-31 01:25:00,
2013-03-30 18:30:00,61.6,46.2,30.10,SW,219,0.0,0.0,57,0.00,,---,0.00,VWS V14.01,2013-03-31 01:30:00,
2013-03-30 18:35:00,61.4,47.0,30.09,SW,220,4.0,4.0,59,0.00,,---,0.00,VWS V14.01,2013-03-31 01:35:00,
2013-03-30 18:40:00,61.2,47.2,30.09,SW,220,0.0,0.0,60,0.00,,---,0.00,VWS V14.01,2013-03-31 01:40:00,
2013-03-30 18:45:00,60.7,47.2,30.09,SW,220,0.0,0.0,61,0.00,,---,0.00,VWS V14.01,2013-03-31 01:45:00,
2013-03-30 18:50:00,60.5,47.0,30.09,SW,220,0.0,0.0,61,0.00,,---,0.00,VWS V14.01,2013-03-31 01:50:00,
2013-03-30 18:55:00,60.3,47.2,30.09,SW,220,0.0,0.0,62,0.00,,---,0.00,VWS V14.01,2013-03-31 01:55:00,
2013-03-30 19:00:00,60.0,47.0,30.09,SW,220,0.0,0.0,62,0.00,,---,0.00,VWS V14.01,2013-03-31 02:00:00,
2013-03-30 19:05:00,59.7,47.9,30.09,SW,220,0.0,0.0,65,0.00,,---,0.00,VWS V14.01,2013-03-31 02:05:00,
2013-03-30 19:10:00,59.2,47.5,30.09,SW,220,0.0,0.0,65,0.00,,---,0.00,VWS V14.01,2013-03-31 02:10:00,
2013-03-30 19:15:00,58.9,47.2,30.09,SW,220,0.0,0.0,65,0.00,,---,0.00,VWS V14.01,2013-03-31 02:15:00,
2013-03-30 19:20:00,58.8,47.1,30.09,SW,220,0.0,0.0,65,0.00,,---,0.00,VWS V14.01,2013-03-31 02:20:00,
2013-03-30 19:25:00,58.6,47.7,30.09,SW,220,0.0,0.0,67,0.00,,---,0.00,VWS V14.01,2013-03-31 02:25:00,
2013-03-30 19:30:00,58.3,47.0,30.09,SW,220,0.0,0.0,66,0.00,,---,0.00,VWS V14.01,2013-03-31 02:30:00,
2013-03-30 19:35:00,57.8,46.9,30.09,SW,220,0.0,0.0,67,0.00,,---,0.00,VWS V14.01,2013-03-31 02:35:00,
2013-03-30 19:40:00,57.5,47.0,30.09,SW,220,0.0,0.0,68,0.00,,---,0.00,VWS V14.01,2013-03-31 02:40:00,
2013-03-30 19:45:00,57.1,47.0,30.09,SW,220,0.0,0.0,69,0.00,,---,0.00,VWS V14.01,2013-03-31 02:45:00,
2013-03-30 19:50:00,56.8,46.8,30.09,SW,220,0.0,0.0,69,0.00,,---,0.00,VWS V14.01,2013-03-31 02:50:00,
2013-03-30 19:55:00,56.4,46.4,30.09,SW,220,0.0,0.0,69,0.00,,---,0.00,VWS V14.01,2013-03-31 02:55:00,
2013-03-30 20:00:00,56.0,46.4,30.09,SW,220,0.0,0.0,70,0.00,,---,0.00,VWS V14.01,2013-03-31 03:00:00,
2013-03-30 20:05:00,55.7,46.5,30.09,SW,220,0.0,0.0,71,0.00,,---,0.00,VWS V14.01,2013-03-31 03:05:00,
2013-03-30 20:10:00,55.5,46.3,30.09,SW,220,0.0,0.0,71,0.00,,---,0.00,VWS V14.01,2013-03-31 03:10:00,
2013-03-30 20:15:00,55.3,46.4,30.10,SW,220,0.0,0.0,72,0.00,,---,0.00,VWS V14.01,2013-03-31 03:15:00,
2013-03-30 20:20:00,55.3,46.1,30.10,SW,220,0.0,0.0,71,0.00,,---,0.00,VWS V14.01,2013-03-31 03:20:00,
2013-03-30 20:25:00,55.1,46.2,30.10,SW,220,0.0,0.0,72,0.00,,---,0.00,VWS V14.01,2013-03-31 03:25:00,
2013-03-30 20:30:00,54.8,46.0,30.10,SW,220,0.0,0.0,72,0.00,,---,0.00,VWS V14.01,2013-03-31 03:30:00,
2013-03-30 20:35:00,54.6,46.1,30.10,SW,220,0.0,0.0,73,0.00,,---,0.00,VWS V14.01,2013-03-31 03:35:00,
2013-03-30 20:40:00,54.4,45.9,30.10,SW,220,0.0,0.0,73,0.00,,---,0.00,VWS V14.01,2013-03-31 03:40:00,
2013-03-30 20:45:00,54.2,46.1,30.10,SW,220,0.0,0.0,74,0.00,,---,0.00,VWS V14.01,2013-03-31 03:45:00,
2013-03-30 20:50:00,53.9,45.8,30.10,SW,220,0.0,0.0,74,0.00,,---,0.00,VWS V14.01,2013-03-31 03:50:00,
2013-03-30 20:55:00,53.7,45.6,30.10,SW,220,0.0,0.0,74,0.00,,---,0.00,VWS V14.01,2013-03-31 03:55:00,
2013-03-30 21:00:00,53.5,45.4,30.10,SW,220,0.0,0.0,74,0.00,,---,0.00,VWS V14.01,2013-03-31 04:00:00,
2013-03-30 21:05:00,53.2,45.1,30.10,SW,220,0.0,0.0,74,0.00,,---,0.00,VWS V14.01,2013-03-31 04:05:00,
2013-03-30 21:10:00,52.9,44.8,30.10,SW,220,0.0,0.0,74,0.00,,---,0.00,VWS V14.01,2013-03-31 04:10:00,
2013-03-30 21:15:00,52.6,44.6,30.10,SW,220,0.0,0.0,74,0.00,,---,0.00,VWS V14.01,2013-03-31 04:15:00,
2013-03-30 21:20:00,52.3,44.3,30.10,SW,220,0.0,0.0,74,0.00,,---,0.00,VWS V14.01,2013-03-31 04:20:00,
2013-03-30 21:25:00,52.0,44.0,30.10,SW,220,0.0,0.0,74,0.00,,---,0.00,VWS V14.01,2013-03-31 04:25:00,
2013-03-30 21:30:00,51.8,44.5,30.10,SW,220,0.0,0.0,76,0.00,,---,0.00,VWS V14.01,2013-03-31 04:30:00,
2013-03-30 21:35:00,51.6,43.2,30.10,SW,220,0.0,0.0,73,0.00,,---,0.00,VWS V14.01,2013-03-31 04:35:00,
2013-03-30 21:40:00,51.4,43.0,30.10,SW,220,0.0,0.0,73,0.00,,---,0.00,VWS V14.01,2013-03-31 04:40:00,
2013-03-30 21:45:00,51.3,43.0,30.11,SW,220,0.0,0.0,73,0.00,,---,0.00,VWS V14.01,2013-03-31 04:45:00,
2013-03-30 21:50:00,51.0,42.7,30.11,SW,220,0.0,0.0,73,0.00,,---,0.00,VWS V14.01,2013-03-31 04:50:00,
2013-03-30 21:55:00,50.7,42.0,30.11,SW,220,0.0,0.0,72,0.00,,---,0.00,VWS V14.01,2013-03-31 04:55:00,
2013-03-30 22:00:00,50.4,41.4,30.11,SW,220,0.0,0.0,71,0.00,,---,0.00,VWS V14.01,2013-03-31 05:00:00,
2013-03-30 22:05:00,50.1,40.7,30.11,SW,220,0.0,0.0,70,0.00,,---,0.00,VWS V14.01,2013-03-31 05:05:00,
2013-03-30 22:10:00,49.9,40.2,30.11,SW,220,0.0,0.0,69,0.00,,---,0.00,VWS V14.01,2013-03-31 05:10:00,
2013-03-30 22:15:00,49.8,39.7,30.11,SW,220,0.0,0.0,68,0.00,,---,0.00,VWS V14.01,2013-03-31 05:15:00,
2013-03-30 22:20:00,49.6,39.5,30.11,SW,220,0.0,0.0,68,0.00,,---,0.00,VWS V14.01,2013-03-31 05:20:00,
2013-03-30 22:25:00,49.4,39.3,30.10,SW,220,0.0,0.0,68,0.00,,---,0.00,VWS V14.01,2013-03-31 05:25:00,
2013-03-30 22:30:00,49.2,38.3,30.10,SW,220,0.0,0.0,66,0.00,,---,0.00,VWS V14.01,2013-03-31 05:30:00,
2013-03-30 22:35:00,49.0,38.2,30.10,SW,220,0.0,0.0,66,0.00,,---,0.00,VWS V14.01,2013-03-31 05:35:00,
2013-03-30 22:40:00,48.7,37.9,30.10,SW,220,0.0,0.0,66,0.00,,---,0.00,VWS V14.01,2013-03-31 05:40:00,
2013-03-30 22:45:00,48.4,36.8,30.10,SW,220,0.0,0.0,64,0.00,,---,0.00,VWS V14.01,2013-03-31 05:45:00,
2013-03-30 22:50:00,48.1,35.3,30.10,SW,220,0.0,0.0,61,0.00,,---,0.00,VWS V14.01,2013-03-31 05:50:00,
2013-03-30 22:55:00,47.9,34.7,30.10,SW,220,0.0,0.0,60,0.00,,---,0.00,VWS V14.01,2013-03-31 05:55:00,
2013-03-30 23:00:00,47.7,33.7,30.10,SW,220,0.0,0.0,58,0.00,,---,0.00,VWS V14.01,2013-03-31 06:00:00,
2013-03-30 23:05:00,47.4,32.1,30.10,SW,220,0.0,0.0,55,0.00,,---,0.00,VWS V14.01,2013-03-31 06:05:00,
2013-03-30 23:10:00,47.2,31.4,30.10,SW,220,0.0,0.0,54,0.00,,---,0.00,VWS V14.01,2013-03-31 06:10:00,
2013-03-30 23:15:00,47.1,30.9,30.10,SW,220,0.0,0.0,53,0.00,,---,0.00,VWS V14.01,2013-03-31 06:15:00,
2013-03-30 23:20:00,47.0,30.8,30.10,SW,220,0.0,0.0,53,0.00,,---,0.00,VWS V14.01,2013-03-31 06:20:00,
2013-03-30 23:25:00,46.8,30.6,30.10,SW,220,0.0,0.0,53,0.00,,---,0.00,VWS V14.01,2013-03-31 06:25:00,
2013-03-30 23:30:00,46.6,30.4,30.10,SW,220,0.0,0.0,53,0.00,,---,0.00,VWS V14.01,2013-03-31 06:30:00,
2013-03-30 23:35:00,46.3,29.6,30.10,SW,220,0.0,0.0,52,0.00,,---,0.00,VWS V14.01,2013-03-31 06:35:00,
2013-03-30 23:40:00,46.1,27.0,30.10,SW,220,0.0,0.0,47,0.00,,---,0.00,VWS V14.01,2013-03-31 06:40:00,
2013-03-30 23:45:00,46.0,25.9,30.09,SW,220,0.0,0.0,45,0.00,,---,0.00,VWS V14.01,2013-03-31 06:45:00,
2013-03-30 23:50:00,45.8,25.7,30.09,SW,220,0.0,0.0,45,0.00,,---,0.00,VWS V14.01,2013-03-31 06:50:00,
2013-03-30 23:55:00,45.6,25.0,30.09,SW,220,0.0,0.0,44,0.00,,---,0.00,VWS V14.01,2013-03-31 06:55:00,